Location: Unspecified
(0.0000°N, 0.0000°E)
Time: 03:17:10
(UTC+00:00)

Hubble Space Telescope - Pass Details

Date: 25 May 2017
Orbit: 537 x 541 km, 28.5° (Epoch: 17 December)

Event Time Altitude Azimuth Distance (km) Brightness Sun altitude
Rises 05:01:04 0° 321° (NW) 2,673 4.1 -13.0°
Reaches altitude 10° 05:03:41 10° 336° (NNW) 1,784 3.4 -12.4°
Maximum altitude 05:06:58 23° 29° (NNE) 1,177 3.2 -11.7°
Drops below altitude 10° 05:10:15 10° 82° (E) 1,786 4.9 -10.9°
Sets 05:12:52 0° 97° (E) 2,677 5.5 -10.3°
